Location: Bucquoy
(50.1391°N, 2.7097°E)
Time: 08:33:58
(UTC+00:00)

Cosmos 2173 Rocket - Pass Details

Date: 06 May 2021
Orbit: 945 x 1000 km, 83.0° (Epoch: 21 June)

Event Time Altitude Azimuth Distance (km) Brightness Sun altitude
Rises 01:51:42 0° 351° (N) 3,633 7.8 -17.8°
Reaches altitude 10° 01:54:13 10° 353° (N) 2,688 7.0 -17.6°
Maximum altitude 02:00:21 76° 79° (E) 990 4.1 -17.0°
Drops below altitude 10° 02:06:32 10° 166° (SSE) 2,700 5.9 -16.5°
Enters shadow 02:06:40 - 166° (SSE) 2,749 6.0 -16.4°
